STARLINK-11263, 60725

Orbit data source: Space-Track

STARLINK-11263, 60725 is a payload satellite owned by SpaceX/Seattle (US) in LEO that was launched on Wed, 28 Aug 2024 UTC via an FALCON 9 launch vehicle from the Air Force Eastern Test Range (AFETR). Payload-class satellites include a variety of spacecraft equipped with specific instruments for various scientific and technological missions. These include communications satellites like Starlink; space stations such as the ISS; scientific satellites like the Hubble; Earth observation satellites from companies like Planet Labs, Umbra, and HawkEye 360; GPS; miniature CubeSats for education and research; and military/defense satellites.

Loading next visibility...
Identifier
60725, 2024-152F
Orbit
LEO
Last TLE update
19 hours ago
Origin
Manufacturer
SpaceX/Seattle
Mission
Operational Commercial Communications
Bus & Motor
STARLINK V2M, Unknown motor
Mass
730 kg wet, ~700 kg dry
Launch date (UTC)
2024-08-28 (10 months ago)
Launch vehicle
FALCON 9
Launch site
Air Force Eastern Test Range (AFETR)
Object type
Payload
Rocket body
Debris
Shape & HBR
Box + 2 Pan, 29 m
Radar Cross Section
36.964 m², Large (>1 m²)

Expand to show TLE details & history

TLE from 19 hours ago
0 STARLINK-11263
1 60725U 24152F   25181.61661730 -.00000436  00000-0  12568-5 0  9992
2 60725  53.1591 278.9218 0000920  87.2611 272.8512 15.69718557 49249
Epoch: 2025-06-30T14:47Z
TLE epoch observation values (Epoch: 2025-06-30T14:47:55.734Z)
Latitude
-0.00005°
Longitude
138.01568°
Altitude
360.586 km
Speed
7.694 km/s
True Right ascension
18h 35m 41s
True Declination
0° 00' 00"
Sunlit
Object was in full shadow at epoch
Visualization orbit readout
Latitude
-22.77239°
Longitude
-27.70869°
Altitude
366.493 km
Speed
7.689 km/s
Apparent Right ascension
08h 28m 27s
Apparent Declination
-31° 54' 52"
Sunlit
Object is in daylight
Visualization observer readout
Local Sidereal Time
21:39:37
Azimuth
66.426° ENE
Elevation
-73.564°
Doppler factor
1
Orbital elements
Apogee altitude
360.583 km
Perigee altitude
359.343 km
Semi-major axis
6,738.1 km
Eccentricity
0.00009
Inclination
53.1591°
RAAN
278.9218°
Arg. of periapsis
87.2611°
True anomaly
Unknown
Mean anomaly
272.8512°
Eccentric anomaly
Unknown
Mean motion
3.92407 °/min
Orbital period
91.74 mins
BSTAR
0.0000012568
Loading maneuver chart data...
Loading SW <> Apogee altitude chart data...
Loading historical data...
Loading historical data...
Loading historical data...
Loading historical data...
Loading historical data...
Loading historical data...
Loading historical data...

STARLINK-11263 Visibility forecast

Observer location: undefined°, undefined°

Span
Click to sort rows by Start time (UTC) header in descending order
Start Az.
Max El. time (UTC)
Max El. Az.
Max El.
End time (UTC)
End Az.
4 mins2025-07-01 15:45:14.292Z326.396° NNW2025-07-01 15:46:14.292Z1.788° NNE39.392°2025-07-01 15:49:14.292Z119.068° SE
|